NEA1399 KCLE-KSGF

Flight info

Callsign NEA1399
Flight time 2h 29m
Altitude 36000
Route GTLKE5 ALPHE PEGEE GETCH LYSTR SUDDS GREAS JAYEX BRL HLV
Aircraft A319/M-SDE3FGHIRWY/LB1

Departure

Time 2026-05-05 22:27
Airport Cleveland Hopkins International Airport (KCLE)

Arrival

Time 2026-05-06 00:57
Airport Springfield Branson National Airport (KSGF)
Time Latitude Longitude Altitude Speed Heading
2026-05-05 21:56 41.40857 -81.84125 779 ft 0 kts 134°
2026-05-05 22:19 41.40859 -81.84128 780 ft 3 kts 134°
2026-05-05 22:19 41.40878 -81.84153 778 ft 4 kts 134°
2026-05-05 22:19 41.40897 -81.84179 778 ft 4 kts 135°
2026-05-05 22:19 41.40916 -81.84204 778 ft 4 kts 135°
2026-05-05 22:20 41.40923 -81.84214 778 ft 0 kts 135°
2026-05-05 22:22 41.40922 -81.84214 778 ft 0 kts 147°
2026-05-05 22:22 41.40920 -81.84215 778 ft 1 kts 166°
2026-05-05 22:23 41.40918 -81.84224 778 ft 1 kts 249°
2026-05-05 22:23 41.40920 -81.84266 777 ft 7 kts 274°
2026-05-05 22:23 41.40923 -81.84336 776 ft 8 kts 274°
2026-05-05 22:23 41.40957 -81.84374 776 ft 7 kts 344°
2026-05-05 22:24 41.41019 -81.84378 776 ft 10 kts 359°
2026-05-05 22:24 41.41087 -81.84380 776 ft 9 kts 359°
2026-05-05 22:24 41.41150 -81.84381 776 ft 9 kts 360°
2026-05-05 22:24 41.41207 -81.84370 776 ft 9 kts 27°
2026-05-05 22:25 41.41254 -81.84306 776 ft 10 kts 50°
2026-05-05 22:25 41.41298 -81.84235 776 ft 10 kts 51°
2026-05-05 22:25 41.41343 -81.84163 776 ft 11 kts 50°
2026-05-05 22:25 41.41393 -81.84096 776 ft 10 kts 22°
2026-05-05 22:26 41.41451 -81.84130 776 ft 3 kts 319°
2026-05-05 22:26 41.41453 -81.84132 776 ft 0 kts 319°
2026-05-05 22:26 41.41478 -81.84162 775 ft 10 kts 319°
2026-05-05 22:26 41.41513 -81.84234 775 ft 9 kts 258°
2026-05-05 22:27 41.41455 -81.84328 781 ft 33 kts 230°
2026-05-05 22:27 41.41126 -81.84848 784 ft 111 kts 230°
2026-05-05 22:27 41.40488 -81.85864 871 ft 164 kts 232°
2026-05-05 22:27 41.39744 -81.87022 1621 ft 165 kts 231°
2026-05-05 22:28 41.38985 -81.88171 2468 ft 164 kts 234°
2026-05-05 22:28 41.38415 -81.89571 2723 ft 187 kts 257°
2026-05-05 22:28 41.38336 -81.91422 2931 ft 213 kts 265°
2026-05-05 22:28 41.38172 -81.93488 3329 ft 237 kts 261°
2026-05-05 22:29 41.37920 -81.95722 4032 ft 247 kts 258°
2026-05-05 22:29 41.37654 -81.97968 5061 ft 246 kts 257°
2026-05-05 22:29 41.37392 -82.00197 6107 ft 243 kts 257°
2026-05-05 22:29 41.37134 -82.02417 7081 ft 243 kts 257°
2026-05-05 22:30 41.36878 -82.04654 7950 ft 245 kts 257°
2026-05-05 22:30 41.36624 -82.06926 8777 ft 249 kts 257°
2026-05-05 22:30 41.36374 -82.09213 9669 ft 250 kts 257°
2026-05-05 22:30 41.36122 -82.11525 10355 ft 258 kts 257°
2026-05-05 22:31 41.35848 -82.13993 10581 ft 281 kts 258°
2026-05-05 22:31 41.35528 -82.16609 11001 ft 290 kts 254°
2026-05-05 22:31 41.34936 -82.19190 11630 ft 293 kts 250°
2026-05-05 22:31 41.34517 -82.20900 12084 ft 295 kts 250°
2026-05-05 22:32 41.33874 -82.23504 12787 ft 297 kts 250°
2026-05-05 22:32 41.33224 -82.26126 13473 ft 300 kts 250°
2026-05-05 22:32 41.32568 -82.28764 14090 ft 303 kts 251°
2026-05-05 22:32 41.31904 -82.31434 14680 ft 306 kts 251°
2026-05-05 22:33 41.31232 -82.34135 15247 ft 309 kts 251°
2026-05-05 22:33 41.30550 -82.36871 15783 ft 313 kts 251°
2026-05-05 22:33 41.29850 -82.39679 16328 ft 318 kts 251°
2026-05-05 22:33 41.29164 -82.42441 16924 ft 320 kts 251°
2026-05-05 22:34 41.28483 -82.45264 17501 ft 322 kts 254°
2026-05-05 22:34 41.28148 -82.48216 18055 ft 326 kts 265°
2026-05-05 22:34 41.28067 -82.51239 18564 ft 328 kts 265°
2026-05-05 22:34 41.27979 -82.54279 19050 ft 330 kts 265°
2026-05-05 22:35 41.27885 -82.57345 19545 ft 332 kts 265°
2026-05-05 22:35 41.27789 -82.60424 20018 ft 335 kts 265°
2026-05-05 22:35 41.27718 -82.63571 20513 ft 338 kts 269°
2026-05-05 22:35 41.27961 -82.66707 21015 ft 343 kts 273°
2026-05-05 22:36 41.28258 -82.69820 21501 ft 345 kts 273°
2026-05-05 22:36 41.28559 -82.72996 21971 ft 347 kts 273°
2026-05-05 22:36 41.28860 -82.76186 22446 ft 349 kts 273°
2026-05-05 22:36 41.29161 -82.79405 22927 ft 352 kts 273°
2026-05-05 22:37 41.29462 -82.82639 23384 ft 354 kts 273°
2026-05-05 22:37 41.29764 -82.85900 23768 ft 356 kts 273°
2026-05-05 22:37 41.30066 -82.89173 24151 ft 358 kts 273°
2026-05-05 22:37 41.30369 -82.92463 24537 ft 359 kts 274°
2026-05-05 22:38 41.30790 -82.95745 24915 ft 364 kts 281°
2026-05-05 22:38 41.31704 -82.98911 25295 ft 372 kts 292°
2026-05-05 22:38 41.33144 -83.01819 25670 ft 382 kts 303°
2026-05-05 22:38 41.34942 -83.04453 26045 ft 385 kts 306°
2026-05-05 22:39 41.36761 -83.07079 26448 ft 387 kts 306°
2026-05-05 22:39 41.38586 -83.09720 26815 ft 388 kts 306°
2026-05-05 22:39 41.40413 -83.12370 27179 ft 389 kts 306°
2026-05-05 22:39 41.42240 -83.15033 27543 ft 390 kts 306°
2026-05-05 22:40 41.44070 -83.17706 27965 ft 390 kts 306°
2026-05-05 22:40 41.45893 -83.20373 28387 ft 389 kts 306°
2026-05-05 22:40 41.47719 -83.23044 28767 ft 390 kts 306°
2026-05-05 22:40 41.49549 -83.25719 29132 ft 391 kts 306°
2026-05-05 22:41 41.51382 -83.28398 29493 ft 392 kts 306°
2026-05-05 22:41 41.53218 -83.31085 29838 ft 392 kts 306°
2026-05-05 22:41 41.55057 -83.33780 30144 ft 393 kts 306°
2026-05-05 22:41 41.56900 -83.36486 30441 ft 394 kts 306°
2026-05-05 22:42 41.58742 -83.39195 30758 ft 394 kts 305°
2026-05-05 22:42 41.60589 -83.41914 31003 ft 396 kts 305°
2026-05-05 22:42 41.62441 -83.44642 31280 ft 397 kts 306°
2026-05-05 22:42 41.64294 -83.47370 31562 ft 397 kts 306°
2026-05-05 22:43 41.66145 -83.50104 31950 ft 395 kts 306°
2026-05-05 22:43 41.67981 -83.52814 32373 ft 392 kts 306°
2026-05-05 22:43 41.69801 -83.55497 32837 ft 388 kts 305°
2026-05-05 22:43 41.71607 -83.58157 33326 ft 384 kts 305°
2026-05-05 22:44 41.73387 -83.60787 33809 ft 380 kts 305°
2026-05-05 22:44 41.75149 -83.63400 34230 ft 376 kts 305°
2026-05-05 22:44 41.76893 -83.65991 34647 ft 373 kts 305°
2026-05-05 22:44 41.78620 -83.68561 35072 ft 369 kts 305°
2026-05-05 22:45 41.80328 -83.71104 35492 ft 366 kts 305°
2026-05-05 22:45 41.82027 -83.73631 35822 ft 364 kts 304°
2026-05-05 22:45 41.83715 -83.76142 35859 ft 362 kts 304°
2026-05-05 22:46 41.87072 -83.81146 35859 ft 360 kts 304°
2026-05-05 22:46 41.90411 -83.86144 35866 ft 360 kts 304°
2026-05-05 22:47 41.94117 -83.90776 35867 ft 365 kts 309°
2026-05-05 22:47 41.97883 -83.95294 35865 ft 361 kts 309°
2026-05-05 22:48 42.01622 -83.99793 35864 ft 361 kts 309°
2026-05-05 22:48 42.05353 -84.04306 35899 ft 360 kts 309°
2026-05-05 22:49 42.09080 -84.08827 35877 ft 361 kts 309°
2026-05-05 22:49 42.12815 -84.13363 35858 ft 362 kts 309°
2026-05-05 22:50 42.16559 -84.17915 35853 ft 362 kts 309°
2026-05-05 22:50 42.20308 -84.22471 35853 ft 363 kts 309°
2026-05-05 22:51 42.24050 -84.27035 35853 ft 363 kts 309°
2026-05-05 22:51 42.27792 -84.31607 35889 ft 362 kts 308°
2026-05-05 22:52 42.31512 -84.36147 35870 ft 360 kts 308°
2026-05-05 22:52 42.35225 -84.40693 35870 ft 360 kts 308°
2026-05-05 22:53 42.38935 -84.45256 35868 ft 361 kts 308°
2026-05-05 22:53 42.42671 -84.49797 35857 ft 365 kts 312°
2026-05-05 22:53 42.44847 -84.51677 35858 ft 380 kts 322°
2026-05-05 22:54 42.47303 -84.53100 35858 ft 385 kts 325°
2026-05-05 22:54 42.52265 -84.55879 35880 ft 386 kts 325°
2026-05-05 22:55 42.57237 -84.58684 35863 ft 387 kts 325°
2026-05-05 22:55 42.62217 -84.61508 35858 ft 388 kts 325°
2026-05-05 22:56 42.67199 -84.64331 35866 ft 388 kts 325°
2026-05-05 22:56 42.72187 -84.67162 35867 ft 388 kts 325°
2026-05-05 22:57 42.77173 -84.69997 35869 ft 388 kts 324°
2026-05-05 22:57 42.82151 -84.72843 35868 ft 388 kts 324°
2026-05-05 22:58 42.87132 -84.75687 35869 ft 388 kts 324°
2026-05-05 22:58 42.92111 -84.78531 35892 ft 389 kts 324°
2026-05-05 22:59 42.97113 -84.81404 35852 ft 390 kts 324°
2026-05-05 22:59 43.02127 -84.84285 35845 ft 392 kts 324°
2026-05-05 23:00 43.09572 -84.88785 35840 ft 378 kts 315°
2026-05-05 23:00 43.11539 -84.91020 35845 ft 361 kts 303°
2026-05-05 23:00 43.13006 -84.93726 35860 ft 349 kts 291°
2026-05-05 23:01 43.14435 -84.99876 35852 ft 337 kts 273°
2026-05-05 23:01 43.14614 -85.06290 35871 ft 338 kts 271°
2026-05-05 23:02 43.14798 -85.12726 35871 ft 338 kts 271°
2026-05-05 23:02 43.14980 -85.19161 35867 ft 339 kts 271°
2026-05-05 23:03 43.15145 -85.25611 35867 ft 339 kts 271°
2026-05-05 23:03 43.15306 -85.32069 35871 ft 339 kts 271°
2026-05-05 23:04 43.15460 -85.38526 35869 ft 339 kts 271°
2026-05-05 23:04 43.15613 -85.44973 35894 ft 339 kts 271°
2026-05-05 23:05 43.15763 -85.51432 35892 ft 338 kts 271°
2026-05-05 23:05 43.15910 -85.57870 35896 ft 338 kts 271°
2026-05-05 23:06 43.16051 -85.64307 35893 ft 338 kts 271°
2026-05-05 23:06 43.16192 -85.70736 35891 ft 338 kts 271°
2026-05-05 23:07 43.16328 -85.77158 35887 ft 337 kts 271°
2026-05-05 23:07 43.16458 -85.83581 35890 ft 337 kts 270°
2026-05-05 23:08 43.16580 -85.89970 35895 ft 337 kts 270°
2026-05-05 23:08 43.16702 -85.96391 35895 ft 337 kts 271°
2026-05-05 23:09 43.16827 -86.02819 35891 ft 337 kts 270°
2026-05-05 23:09 43.16879 -86.08148 35887 ft 336 kts 269°
2026-05-05 23:10 43.16758 -86.15624 35882 ft 336 kts 268°
2026-05-05 23:10 43.16635 -86.22016 35841 ft 335 kts 269°
2026-05-05 23:11 43.16548 -86.27292 35867 ft 332 kts 269°
2026-05-05 23:11 43.16450 -86.33612 35878 ft 331 kts 269°
2026-05-05 23:12 43.16335 -86.40932 35886 ft 331 kts 269°
2026-05-05 23:12 43.16248 -86.46205 35887 ft 330 kts 269°
2026-05-05 23:13 43.16146 -86.52492 35883 ft 330 kts 269°
2026-05-05 23:13 43.16038 -86.58781 35896 ft 330 kts 269°
2026-05-05 23:14 43.15924 -86.65061 35890 ft 330 kts 269°
2026-05-05 23:14 43.15805 -86.71336 35891 ft 329 kts 269°
2026-05-05 23:15 43.15686 -86.77560 35888 ft 329 kts 269°
2026-05-05 23:15 43.15561 -86.83826 35884 ft 329 kts 269°
2026-05-05 23:16 43.15437 -86.90089 35887 ft 329 kts 269°
2026-05-05 23:16 43.15305 -86.96394 35887 ft 329 kts 269°
2026-05-05 23:17 43.15168 -87.02657 35888 ft 329 kts 269°
2026-05-05 23:17 43.15031 -87.08901 35891 ft 329 kts 269°
2026-05-05 23:18 43.14888 -87.15155 35881 ft 328 kts 269°
2026-05-05 23:18 43.14736 -87.21409 35884 ft 328 kts 268°
2026-05-05 23:19 43.14585 -87.27654 35883 ft 328 kts 269°
2026-05-05 23:19 43.14433 -87.33897 35887 ft 328 kts 268°
2026-05-05 23:20 43.13775 -87.40072 35886 ft 330 kts 260°
2026-05-05 23:20 43.12747 -87.46188 35882 ft 329 kts 260°
2026-05-05 23:21 43.11725 -87.52297 35878 ft 329 kts 260°
2026-05-05 23:21 43.10707 -87.58406 35873 ft 329 kts 260°
2026-05-05 23:22 43.09683 -87.64514 35873 ft 329 kts 260°
2026-05-05 23:22 43.08653 -87.70621 35867 ft 329 kts 260°
2026-05-05 23:23 43.07611 -87.76721 35893 ft 329 kts 260°
2026-05-05 23:23 43.06575 -87.82811 35888 ft 329 kts 260°
2026-05-05 23:24 43.05551 -87.88853 35882 ft 328 kts 260°
2026-05-05 23:24 43.04506 -87.94934 35895 ft 328 kts 260°
2026-05-05 23:25 43.03448 -88.01042 35892 ft 328 kts 259°
2026-05-05 23:25 43.02402 -88.07101 35889 ft 328 kts 260°
2026-05-05 23:26 43.01363 -88.13129 35878 ft 328 kts 260°
2026-05-05 23:26 43.00317 -88.19183 35830 ft 327 kts 260°
2026-05-05 23:27 42.99268 -88.25217 35842 ft 326 kts 260°
2026-05-05 23:27 42.98212 -88.31240 35854 ft 326 kts 260°
2026-05-05 23:28 42.97151 -88.37257 35855 ft 326 kts 260°
2026-05-05 23:28 42.96089 -88.43271 35863 ft 326 kts 260°
2026-05-05 23:29 42.95025 -88.49284 35886 ft 326 kts 259°
2026-05-05 23:29 42.94159 -88.55329 35881 ft 324 kts 268°
2026-05-05 23:30 42.94337 -88.61467 35880 ft 324 kts 271°
2026-05-05 23:30 42.94537 -88.67655 35882 ft 324 kts 271°
2026-05-05 23:31 42.94725 -88.73798 35879 ft 324 kts 271°
2026-05-05 23:31 42.94910 -88.79946 35882 ft 324 kts 271°
2026-05-05 23:32 42.95092 -88.86094 35885 ft 324 kts 271°
2026-05-05 23:32 42.95268 -88.92238 35888 ft 324 kts 271°
2026-05-05 23:33 42.95442 -88.98381 35884 ft 324 kts 271°
2026-05-05 23:33 42.95620 -89.04517 35887 ft 323 kts 271°
2026-05-05 23:34 42.95792 -89.10653 35891 ft 324 kts 271°
2026-05-05 23:34 42.95958 -89.16790 35890 ft 324 kts 271°
2026-05-05 23:35 42.96119 -89.22886 35883 ft 323 kts 271°
2026-05-05 23:35 42.96278 -89.29022 35904 ft 323 kts 270°
2026-05-05 23:36 42.96436 -89.35159 35899 ft 323 kts 270°
2026-05-05 23:36 42.96593 -89.41291 35895 ft 323 kts 270°
2026-05-05 23:37 42.96743 -89.47419 35894 ft 323 kts 270°
2026-05-05 23:37 42.96888 -89.53538 35890 ft 323 kts 270°
2026-05-05 23:38 42.97033 -89.59663 35889 ft 323 kts 270°
2026-05-05 23:38 42.97172 -89.65788 35887 ft 323 kts 270°
2026-05-05 23:39 42.97305 -89.71918 35888 ft 323 kts 270°
2026-05-05 23:39 42.97441 -89.78048 35890 ft 323 kts 270°
2026-05-05 23:40 42.97574 -89.84177 35890 ft 323 kts 270°
2026-05-05 23:40 42.97703 -89.90308 35890 ft 323 kts 270°
2026-05-05 23:41 42.97827 -89.96438 35892 ft 323 kts 270°
2026-05-05 23:41 42.97948 -90.02568 35909 ft 323 kts 270°
2026-05-05 23:42 42.98062 -90.08689 35907 ft 323 kts 270°
2026-05-05 23:42 42.98176 -90.14818 35905 ft 322 kts 270°
2026-05-05 23:43 42.97386 -90.20767 35898 ft 330 kts 246°
2026-05-05 23:43 42.95881 -90.23215 35893 ft 349 kts 230°
2026-05-05 23:43 42.93655 -90.24834 35891 ft 381 kts 211°
2026-05-05 23:44 42.88436 -90.26561 35879 ft 391 kts 208°
2026-05-05 23:44 42.83108 -90.28184 35878 ft 393 kts 208°
2026-05-05 23:45 42.77778 -90.29833 35880 ft 393 kts 208°
2026-05-05 23:45 42.72413 -90.31521 35881 ft 393 kts 208°
2026-05-05 23:46 42.67084 -90.33207 35892 ft 393 kts 208°
2026-05-05 23:46 42.61753 -90.34896 35895 ft 394 kts 208°
2026-05-05 23:47 42.56421 -90.36575 35897 ft 395 kts 208°
2026-05-05 23:47 42.51062 -90.38238 35924 ft 394 kts 208°
2026-05-05 23:48 42.45723 -90.39900 35925 ft 393 kts 208°
2026-05-05 23:48 42.40397 -90.41558 35860 ft 392 kts 208°
2026-05-05 23:49 42.35081 -90.43221 35863 ft 392 kts 208°
2026-05-05 23:49 42.29773 -90.44878 35871 ft 392 kts 208°
2026-05-05 23:50 42.24456 -90.46533 35882 ft 392 kts 208°
2026-05-05 23:50 42.19132 -90.48179 35846 ft 392 kts 208°
2026-05-05 23:51 42.13842 -90.49813 35889 ft 393 kts 208°
2026-05-05 23:51 42.08515 -90.51471 35897 ft 393 kts 208°
2026-05-05 23:52 42.03191 -90.53118 35896 ft 392 kts 208°
2026-05-05 23:52 41.97871 -90.54751 35845 ft 392 kts 208°
2026-05-05 23:53 41.92545 -90.56378 35890 ft 393 kts 208°
2026-05-05 23:53 41.88077 -90.57745 35896 ft 393 kts 208°
2026-05-05 23:54 41.82755 -90.59376 35898 ft 392 kts 208°
2026-05-05 23:54 41.77432 -90.61003 35900 ft 392 kts 208°
2026-05-05 23:55 41.72109 -90.62630 35882 ft 393 kts 208°
2026-05-05 23:55 41.66776 -90.64253 35891 ft 393 kts 208°
2026-05-05 23:56 41.61448 -90.65873 35893 ft 392 kts 208°
2026-05-05 23:56 41.56136 -90.67484 35893 ft 392 kts 208°
2026-05-05 23:57 41.50821 -90.69098 35863 ft 391 kts 208°
2026-05-05 23:57 41.45511 -90.70705 35867 ft 391 kts 208°
2026-05-05 23:58 41.40198 -90.72313 35873 ft 392 kts 208°
2026-05-05 23:58 41.34882 -90.73921 35881 ft 392 kts 208°
2026-05-05 23:59 41.29553 -90.75535 35890 ft 394 kts 208°
2026-05-05 23:59 41.24200 -90.77142 35921 ft 394 kts 208°
2026-05-06 00:00 41.18858 -90.78741 35924 ft 393 kts 208°
2026-05-06 00:00 41.13528 -90.80341 35930 ft 392 kts 208°
2026-05-06 00:01 41.08212 -90.81936 35886 ft 392 kts 208°
2026-05-06 00:01 41.02883 -90.83522 35894 ft 392 kts 208°
2026-05-06 00:02 40.97555 -90.85102 35901 ft 392 kts 208°
2026-05-06 00:02 40.92224 -90.86694 35905 ft 392 kts 208°
2026-05-06 00:03 40.86897 -90.88276 35882 ft 393 kts 208°
2026-05-06 00:03 40.81559 -90.89866 35891 ft 393 kts 208°
2026-05-06 00:04 40.76218 -90.91455 35903 ft 394 kts 208°
2026-05-06 00:04 40.71122 -90.93559 35909 ft 370 kts 220°
2026-05-06 00:05 40.64544 -90.98558 35911 ft 364 kts 223°
2026-05-06 00:06 40.60171 -91.01909 35918 ft 364 kts 223°
2026-05-06 00:06 40.55789 -91.05255 35917 ft 364 kts 223°
2026-05-06 00:07 40.51403 -91.08594 35919 ft 364 kts 223°
2026-05-06 00:07 40.47019 -91.11928 35925 ft 364 kts 223°
2026-05-06 00:08 40.42624 -91.15272 35924 ft 366 kts 223°
2026-05-06 00:08 40.38216 -91.18620 35942 ft 365 kts 223°
2026-05-06 00:09 40.33820 -91.21953 35937 ft 365 kts 223°
2026-05-06 00:09 40.29423 -91.25278 35938 ft 364 kts 223°
2026-05-06 00:10 40.25034 -91.28600 35939 ft 364 kts 223°
2026-05-06 00:10 40.20646 -91.31916 35894 ft 364 kts 223°
2026-05-06 00:11 40.16252 -91.35225 35903 ft 365 kts 223°
2026-05-06 00:11 40.11852 -91.38536 35908 ft 365 kts 223°
2026-05-06 00:12 40.07457 -91.41842 35919 ft 365 kts 223°
2026-05-06 00:12 40.03059 -91.45148 35921 ft 365 kts 223°
2026-05-06 00:13 39.98651 -91.48443 35905 ft 366 kts 223°
2026-05-06 00:13 39.94230 -91.51750 35923 ft 366 kts 223°
2026-05-06 00:14 39.89814 -91.55047 35951 ft 366 kts 223°
2026-05-06 00:14 39.85404 -91.58331 35957 ft 365 kts 223°
2026-05-06 00:15 39.81003 -91.61608 35957 ft 364 kts 223°
2026-05-06 00:15 39.76609 -91.64878 35905 ft 364 kts 223°
2026-05-06 00:16 39.72211 -91.68148 35924 ft 364 kts 223°
2026-05-06 00:16 39.67805 -91.71407 35930 ft 364 kts 223°
2026-05-06 00:17 39.63395 -91.74666 35936 ft 365 kts 223°
2026-05-06 00:17 39.58985 -91.77923 35939 ft 365 kts 223°
2026-05-06 00:18 39.54605 -91.81158 35906 ft 365 kts 223°
2026-05-06 00:18 39.50159 -91.84437 35924 ft 366 kts 223°
2026-05-06 00:19 39.45765 -91.87670 35931 ft 366 kts 223°
2026-05-06 00:19 39.41334 -91.90924 35940 ft 366 kts 223°
2026-05-06 00:20 39.36908 -91.94168 35957 ft 365 kts 223°
2026-05-06 00:20 39.32490 -91.97402 35913 ft 365 kts 223°
2026-05-06 00:21 39.28075 -92.00625 35932 ft 365 kts 223°
2026-05-06 00:21 39.23662 -92.03851 35937 ft 365 kts 223°
2026-05-06 00:22 39.19245 -92.07073 35947 ft 365 kts 223°
2026-05-06 00:22 39.14823 -92.10292 35950 ft 365 kts 223°
2026-05-06 00:23 39.10395 -92.13501 35951 ft 366 kts 222°
2026-05-06 00:23 39.05877 -92.16609 35950 ft 370 kts 221°
2026-05-06 00:24 39.01301 -92.19654 35952 ft 370 kts 221°
2026-05-06 00:24 38.96743 -92.22701 35952 ft 369 kts 221°
2026-05-06 00:25 38.92207 -92.25770 35953 ft 368 kts 221°
2026-05-06 00:25 38.87702 -92.28813 35952 ft 368 kts 221°
2026-05-06 00:26 38.83169 -92.31866 35928 ft 368 kts 221°
2026-05-06 00:26 38.78631 -92.34926 35927 ft 369 kts 221°
2026-05-06 00:27 38.74065 -92.37995 35931 ft 371 kts 221°
2026-05-06 00:27 38.69466 -92.41094 35000 ft 380 kts 221°
2026-05-06 00:27 38.67109 -92.42687 34109 ft 386 kts 220°
2026-05-06 00:28 38.64693 -92.44308 33248 ft 387 kts 220°
2026-05-06 00:28 38.62311 -92.45891 32475 ft 385 kts 220°
2026-05-06 00:28 38.59980 -92.47430 31924 ft 379 kts 219°
2026-05-06 00:28 38.57667 -92.48950 31522 ft 369 kts 220°
2026-05-06 00:29 38.55418 -92.50432 31128 ft 360 kts 220°
2026-05-06 00:29 38.53212 -92.51894 30741 ft 355 kts 220°
2026-05-06 00:29 38.51036 -92.53346 30362 ft 351 kts 220°
2026-05-06 00:29 38.48885 -92.54785 29983 ft 347 kts 220°
2026-05-06 00:30 38.46765 -92.56206 29577 ft 342 kts 220°
2026-05-06 00:30 38.44671 -92.57609 29230 ft 337 kts 220°
2026-05-06 00:30 38.42604 -92.58987 28879 ft 333 kts 220°
2026-05-06 00:30 38.40557 -92.60346 28543 ft 330 kts 219°
2026-05-06 00:31 38.38530 -92.61689 28213 ft 327 kts 219°
2026-05-06 00:31 38.36520 -92.63019 27886 ft 323 kts 219°
2026-05-06 00:31 38.34536 -92.64337 27551 ft 320 kts 219°
2026-05-06 00:31 38.32576 -92.65638 27236 ft 316 kts 219°
2026-05-06 00:32 38.30640 -92.66922 26923 ft 312 kts 219°
2026-05-06 00:32 38.28725 -92.68192 26610 ft 308 kts 219°
2026-05-06 00:32 38.26834 -92.69442 26301 ft 304 kts 218°
2026-05-06 00:32 38.24968 -92.70675 25990 ft 301 kts 218°
2026-05-06 00:33 38.23116 -92.71901 25695 ft 299 kts 218°
2026-05-06 00:33 38.21273 -92.73121 25375 ft 298 kts 218°
2026-05-06 00:33 38.19437 -92.74335 25054 ft 297 kts 217°
2026-05-06 00:33 38.17603 -92.75545 24743 ft 297 kts 217°
2026-05-06 00:34 38.16390 -92.76344 24523 ft 296 kts 217°
2026-05-06 00:34 38.14561 -92.77550 24183 ft 298 kts 217°
2026-05-06 00:34 38.12716 -92.78768 23864 ft 299 kts 216°
2026-05-06 00:34 38.10867 -92.79986 23526 ft 299 kts 216°
2026-05-06 00:35 38.09023 -92.81200 23148 ft 298 kts 216°
2026-05-06 00:35 38.07184 -92.82410 22799 ft 297 kts 215°
2026-05-06 00:35 38.05349 -92.83616 22442 ft 297 kts 215°
2026-05-06 00:35 38.03518 -92.84816 22105 ft 296 kts 215°
2026-05-06 00:36 38.01692 -92.86009 21758 ft 295 kts 214°
2026-05-06 00:36 37.99874 -92.87199 21415 ft 294 kts 214°
2026-05-06 00:36 37.98062 -92.88388 21075 ft 293 kts 214°
2026-05-06 00:36 37.96256 -92.89575 20728 ft 292 kts 214°
2026-05-06 00:37 37.94458 -92.90758 20388 ft 291 kts 214°
2026-05-06 00:37 37.92664 -92.91933 20043 ft 290 kts 213°
2026-05-06 00:37 37.90878 -92.93105 19689 ft 288 kts 213°
2026-05-06 00:37 37.89102 -92.94265 19360 ft 286 kts 213°
2026-05-06 00:38 37.87338 -92.95420 19025 ft 285 kts 213°
2026-05-06 00:38 37.85577 -92.96569 18683 ft 284 kts 212°
2026-05-06 00:38 37.83826 -92.97711 18347 ft 283 kts 212°
2026-05-06 00:38 37.82081 -92.98853 18018 ft 281 kts 212°
2026-05-06 00:39 37.80358 -92.99976 17724 ft 278 kts 212°
2026-05-06 00:39 37.78648 -93.01087 17396 ft 275 kts 212°
2026-05-06 00:39 37.76951 -93.02186 17064 ft 273 kts 212°
2026-05-06 00:39 37.75263 -93.03281 16737 ft 272 kts 212°
2026-05-06 00:40 37.73588 -93.04371 16414 ft 270 kts 212°
2026-05-06 00:40 37.71920 -93.05456 16100 ft 269 kts 212°
2026-05-06 00:40 37.70258 -93.06539 15777 ft 269 kts 212°
2026-05-06 00:40 37.68596 -93.07624 15457 ft 269 kts 212°
2026-05-06 00:41 37.66934 -93.08706 15110 ft 268 kts 213°
2026-05-06 00:41 37.65280 -93.09778 14805 ft 267 kts 213°
2026-05-06 00:41 37.63633 -93.10842 14492 ft 266 kts 213°
2026-05-06 00:41 37.61992 -93.11902 14176 ft 265 kts 213°
2026-05-06 00:42 37.60354 -93.12964 13861 ft 264 kts 213°
2026-05-06 00:42 37.58723 -93.14027 13522 ft 264 kts 213°
2026-05-06 00:42 37.57097 -93.15081 13192 ft 262 kts 212°
2026-05-06 00:42 37.55483 -93.16124 12879 ft 260 kts 212°
2026-05-06 00:43 37.53882 -93.17161 12574 ft 258 kts 212°
2026-05-06 00:43 37.52292 -93.18191 12256 ft 256 kts 212°
2026-05-06 00:43 37.50711 -93.19214 11952 ft 255 kts 212°
2026-05-06 00:43 37.49137 -93.20231 11643 ft 254 kts 212°
2026-05-06 00:44 37.47570 -93.21241 11339 ft 253 kts 212°
2026-05-06 00:44 37.46007 -93.22246 11034 ft 252 kts 212°
2026-05-06 00:44 37.44446 -93.23248 10728 ft 251 kts 212°
2026-05-06 00:44 37.42897 -93.24244 10422 ft 250 kts 212°
2026-05-06 00:45 37.41354 -93.25238 10123 ft 249 kts 212°
2026-05-06 00:45 37.39817 -93.26230 9828 ft 248 kts 212°
2026-05-06 00:45 37.38287 -93.27216 9496 ft 247 kts 212°
2026-05-06 00:45 37.36643 -93.27986 9190 ft 261 kts 198°
2026-05-06 00:46 37.34891 -93.28504 8884 ft 263 kts 200°
2026-05-06 00:46 37.33125 -93.29094 8582 ft 263 kts 200°
2026-05-06 00:46 37.31343 -93.29706 8270 ft 262 kts 200°
2026-05-06 00:46 37.29588 -93.30321 7982 ft 261 kts 200°
2026-05-06 00:47 37.27840 -93.30947 7598 ft 262 kts 200°
2026-05-06 00:47 37.26092 -93.31591 7231 ft 262 kts 200°
2026-05-06 00:47 37.24360 -93.32251 6877 ft 259 kts 200°
2026-05-06 00:47 37.22661 -93.32913 6592 ft 259 kts 200°
2026-05-06 00:48 37.20945 -93.33596 6310 ft 258 kts 200°
2026-05-06 00:48 37.19236 -93.34295 6004 ft 259 kts 200°
2026-05-06 00:48 37.17505 -93.35012 5685 ft 257 kts 200°
2026-05-06 00:48 37.15833 -93.35697 5389 ft 255 kts 199°
2026-05-06 00:49 37.14138 -93.36421 5087 ft 253 kts 200°
2026-05-06 00:49 37.12483 -93.37165 4790 ft 252 kts 200°
2026-05-06 00:49 37.10854 -93.37949 4482 ft 250 kts 200°
2026-05-06 00:49 37.09239 -93.38762 4171 ft 250 kts 200°
2026-05-06 00:50 37.07627 -93.39584 3859 ft 250 kts 200°
2026-05-06 00:50 37.06035 -93.40416 3557 ft 246 kts 200°
2026-05-06 00:50 37.04514 -93.41383 3239 ft 246 kts 219°
2026-05-06 00:50 37.03655 -93.43148 3014 ft 233 kts 265°
2026-05-06 00:51 37.03909 -93.44959 3001 ft 201 kts 312°
2026-05-06 00:51 37.04910 -93.46005 3030 ft 180 kts 338°
2026-05-06 00:51 37.06007 -93.46551 3006 ft 159 kts 352°
2026-05-06 00:51 37.07023 -93.46725 3008 ft 135 kts
2026-05-06 00:52 37.07918 -93.46630 3008 ft 124 kts 16°
2026-05-06 00:52 37.08734 -93.46319 3013 ft 122 kts 26°
2026-05-06 00:52 37.09521 -93.45928 3016 ft 122 kts 25°
2026-05-06 00:52 37.10315 -93.45533 3022 ft 122 kts 25°
2026-05-06 00:53 37.11106 -93.45140 3015 ft 123 kts 26°
2026-05-06 00:53 37.11898 -93.44745 3016 ft 122 kts 25°
2026-05-06 00:53 37.12692 -93.44350 3016 ft 122 kts 24°
2026-05-06 00:53 37.13484 -93.43955 3016 ft 123 kts 25°
2026-05-06 00:54 37.14277 -93.43560 3015 ft 123 kts 26°
2026-05-06 00:54 37.15068 -93.43166 3015 ft 122 kts 25°
2026-05-06 00:54 37.15864 -93.42769 2932 ft 123 kts 25°
2026-05-06 00:54 37.16657 -93.42373 2807 ft 122 kts 24°
2026-05-06 00:55 37.17445 -93.41981 2661 ft 122 kts 24°
2026-05-06 00:55 37.18230 -93.41588 2507 ft 121 kts 23°
2026-05-06 00:55 37.19011 -93.41199 2323 ft 121 kts 23°
2026-05-06 00:55 37.19791 -93.40803 2136 ft 123 kts 22°
2026-05-06 00:56 37.20590 -93.40426 1920 ft 122 kts 21°
2026-05-06 00:56 37.21379 -93.40027 1749 ft 121 kts 24°
2026-05-06 00:56 37.22161 -93.39626 1594 ft 122 kts 20°
2026-05-06 00:56 37.22956 -93.39231 1433 ft 122 kts 23°
2026-05-06 00:57 37.23737 -93.38838 1292 ft 120 kts 23°
2026-05-06 00:57 37.24406 -93.38502 1279 ft 80 kts 21°
2026-05-06 00:57 37.24744 -93.38334 1277 ft 45 kts 22°
2026-05-06 00:57 37.25020 -93.38195 1279 ft 41 kts 22°
2026-05-06 00:58 37.25256 -93.38077 1271 ft 19 kts 21°
2026-05-06 00:58 37.25359 -93.38092 1270 ft 18 kts 299°
2026-05-06 00:58 37.25303 -93.38203 1272 ft 19 kts 201°
2026-05-06 00:58 37.25177 -93.38268 1273 ft 20 kts 201°
2026-05-06 00:59 37.25046 -93.38333 1274 ft 21 kts 201°
2026-05-06 00:59 37.24906 -93.38402 1274 ft 23 kts 201°
2026-05-06 00:59 37.24760 -93.38475 1275 ft 23 kts 201°
2026-05-06 00:59 37.24604 -93.38553 1274 ft 25 kts 201°
2026-05-06 01:00 37.24446 -93.38633 1276 ft 25 kts 202°
2026-05-06 01:00 37.24289 -93.38726 1281 ft 24 kts 215°
2026-05-06 01:00 37.24152 -93.38834 1283 ft 22 kts 211°
2026-05-06 01:00 37.24088 -93.38992 1281 ft 24 kts 283°
2026-05-06 01:01 37.24156 -93.39206 1274 ft 29 kts 292°
2026-05-06 01:01 37.24172 -93.39383 1274 ft 19 kts 220°
2026-05-06 01:01 37.24126 -93.39460 1269 ft 11 kts 293°
2026-05-06 01:01 37.24158 -93.39556 1271 ft 13 kts 291°
2026-05-06 01:02 37.24158 -93.39616 1272 ft 6 kts 208°
2026-05-06 01:02 37.24124 -93.39622 1269 ft 3 kts 192°
2026-05-06 01:02 37.24103 -93.39628 1275 ft 1 kts 193°
2026-05-06 01:02 37.24099 -93.39629 1268 ft 0 kts 193°